Flag Weather past 2 weeks in Yokosuka, Japan

Now
55 °F

Passing clouds.


Feels Like: 54 °F
Forecast: 58 / 65 °F
Wind: 6 mph from Northeast

Location: Tokyo International Airport

Current Time: Nov 28, 2014 at 6:26:56 AM

Latest Report: Nov 28, 2014 at 5:30 AM


Visibility: N/A

Pressure: 30.27 "Hg

Humidity: 88%

Dew point: 52 °F

Location of YokosukaLocation

Historic Weather in Yokosuka — Graph

°F

Yokosuka temperature yesterday

Maximum temperature yesterday: 61 °F (at 1:00 PM)
Minimum temperature yesterday: 50 °F (at 12:00 AM)
Average temperature yesterday: 56 °F

Past Weeks' High & Low Weather Summary

 TemperatureHumidityPressure
High68 °F (Nov 13, 11:30 AM)94% (Nov 20, 5:30 PM)30.33 "Hg (Nov 20, 5:30 PM)
Low46 °F (Nov 14, 6:30 AM)29% (Nov 13, 6:30 PM)29.59 "Hg (Nov 13, 5:00 AM)
Average55 °F62%30.09 "Hg
* Reported Nov 13 5:00 AM — Nov 28 5:00 AM, Yokosuka, Weather by CustomWeather, © 2014

Note: Actual official high and low records may vary slightly from our data, if they occured in-between our weather recording intervals... More about our weather records

Advertising

Yokosuka weather history for previous 24 hours

 ConditionsComfort  
Time TempWeatherWind HumidityBarometerVisibility
5:00 AM
Nov 28
55 °FPartly cloudy.6 mph88%30.27 "HgN/A
4:30 AM57 °FPartly cloudy.3 mph88%30.24 "HgN/A
4:00 AM55 °FPartly cloudy.3 mph88%30.24 "HgN/A
3:30 AM57 °FPassing clouds.3 mph82%30.24 "HgN/A
3:00 AM55 °FPassing clouds.2 mph88%30.24 "HgN/A
2:30 AM54 °FPartly cloudy.3 mph88%30.27 "HgN/A
2:00 AM54 °FPassing clouds.3 mph88%30.27 "HgN/A
1:30 AM55 °FPassing clouds.5 mph88%30.27 "HgN/A
1:00 AM54 °FPassing clouds.6 mph94%30.24 "HgN/A
12:30 AM54 °FPassing clouds.7 mph88%30.24 "HgN/A
12:00 AM57 °FPassing clouds.7 mph77%30.24 "HgN/A
11:30 PM
Nov 27
57 °FPassing clouds.8 mph77%30.24 "HgN/A
11:00 PM57 °FPassing clouds.6 mph82%30.24 "HgN/A
10:30 PM59 °FPassing clouds.7 mph77%30.24 "HgN/A
10:00 PM59 °FPassing clouds.6 mph77%30.24 "HgN/A
9:30 PM59 °FPassing clouds.7 mph77%30.24 "HgN/A
9:00 PM59 °FPassing clouds.9 mph72%30.24 "HgN/A
8:30 PM59 °FPassing clouds.8 mph72%30.24 "HgN/A
8:00 PM59 °FPassing clouds.10 mph72%30.24 "HgN/A
7:30 PM59 °FPassing clouds.7 mph77%30.21 "HgN/A
7:00 PM59 °FPassing clouds.7 mph77%30.21 "HgN/A
6:30 PM59 °FPassing clouds.6 mph77%30.18 "HgN/A
6:00 PM59 °FPassing clouds.3 mph72%30.18 "HgN/A
5:30 PM59 °FPassing clouds.3 mph68%30.18 "HgN/A
5:00 PM59 °FPassing clouds.1 mph68%30.15 "HgN/A
4:30 PM59 °FPassing clouds.1 mph68%30.15 "HgN/A
4:00 PM59 °FPassing clouds.1 mph68%30.12 "HgN/A
3:30 PM59 °FPassing clouds.3 mph68%30.12 "HgN/A
3:00 PM59 °FPassing clouds.7 mph68%30.12 "HgN/A
2:30 PM59 °FPassing clouds.7 mph68%30.09 "HgN/A
2:00 PM61 °FPassing clouds.5 mph63%30.09 "HgN/A
1:30 PM61 °FPassing clouds.5 mph63%30.09 "HgN/A
1:00 PM61 °FPassing clouds.3 mph59%30.09 "HgN/A
12:30 PM59 °FPassing clouds.5 mph63%30.09 "HgN/A
11:30 AM59 °FPassing clouds.9 mph63%30.09 "HgN/A
11:00 AM57 °FPassing clouds.8 mph67%30.09 "HgN/A
10:30 AM57 °FPassing clouds.9 mph67%30.09 "HgN/A
10:00 AM55 °FPassing clouds.7 mph72%30.09 "HgN/A
9:30 AM55 °FPassing clouds.8 mph72%30.09 "HgN/A
9:00 AM54 °FPassing clouds.8 mph72%30.09 "HgN/A
8:30 AM54 °FPassing clouds.3 mph72%30.09 "HgN/A
8:00 AM52 °FPassing clouds.3 mph77%30.09 "HgN/A
7:30 AM50 °FPassing clouds.7 mph82%30.07 "HgN/A
7:00 AM50 °FPassing clouds.8 mph82%30.07 "HgN/A
6:30 AM50 °FPassing clouds.7 mph76%30.04 "HgN/A
6:00 AM52 °FPassing clouds.10 mph77%30.04 "HgN/A
Weather by CustomWeather, © 2014

See weather overviewHow to use our weather pages